Location: Ottawa
(45.4170°N, 75.7000°W)
Time: 04:42:20
(UTC-04:00)

Iridium 91 - Visible Passes

Search period start: 27 September 2016 00:00
Search period end: 07 October 2016 00:00
Orbit: 776 x 779 km, 86.4° (Epoch: 26 September)

Date Brightness Start Highest point End Pass type
(mag) Time Alt. Az. Time Alt. Az. Time Alt. Az.
27 Sep 7.9 02:43:53 19° NNE 02:43:53 19° NNE 02:45:31 10° NNE visible
27 Sep 7.4 04:24:22 17° NNW 04:24:22 17° NNW 04:25:58 10° NNW visible
28 Sep 8.4 02:10:43 13° NE 02:10:43 13° NE 02:11:24 10° NNE visible
28 Sep 7.5 03:51:12 20° NNW 03:51:12 20° NNW 03:52:51 10° N visible
29 Sep 7.7 03:18:01 19° N 03:18:01 19° N 03:19:28 10° N visible
30 Sep 8.1 02:44:50 16° NNE 02:44:50 16° NNE 02:45:50 10° NNE visible
30 Sep 7.9 04:25:19 11° NNW 04:25:19 11° NNW 04:25:38 10° NNW visible
01 Oct 8.5 02:11:37 11° NNE 02:11:37 11° NNE 02:11:55 10° NNE visible
01 Oct 7.9 03:52:06 13° NNW 03:52:06 13° NNW 03:52:46 10° NNW visible
02 Oct 8.1 03:18:53 13° N 03:18:53 13° N 03:19:32 10° N visible
03 Oct 8.3 02:45:39 12° N 02:45:39 12° N 02:46:02 10° N visible
